This is the latest recevied weather packets stored in our database for station/object K1BES. If no packets are shown the sender has not sent any weather packets the latest 10 day(s).
| Time | Temp. | Humidity | Pressure | Rain* | Wind** | Luminosity | Snow |
|---|---|---|---|---|---|---|---|
| 1788568916 | 29.44° C | 81% | 1017.2 hPa | 0 mm | - | 0 W/m² | - |
| 1788568611 | 29.44° C | 81% | 1016.9 hPa | 0 mm | - | 0 W/m² | - |
| 1788568307 | 29.44° C | 81% | 1017.2 hPa | 0 mm | - | 0 W/m² | - |
| 1788568003 | 29.44° C | 82% | 1016.9 hPa | 0 mm | - | 0 W/m² | - |
| 1788567697 | 29.44° C | 82% | 1016.7 hPa | 0 mm | - | 0 W/m² | - |
| 1788567392 | 29.44° C | 81% | 1016.9 hPa | 0 mm | - | 0 W/m² | - |
| 1788567092 | 29.44° C | 81% | 1016.6 hPa | 0 mm | - | 0 W/m² | - |
| 1788566787 | 30° C | 81% | 1016.5 hPa | 0 mm | - | 0 W/m² | - |
| 1788566483 | 29.44° C | 81% | 1016.4 hPa | 0 mm | - | 0 W/m² | - |
| 1788566183 | 29.44° C | 81% | 1016.4 hPa | 0 mm | - | 1 W/m² | - |
| 1788565882 | 29.44° C | 81% | 1016.3 hPa | 0 mm | - | 2 W/m² | - |
| 1788565577 | 30° C | 82% | 1016.6 hPa | 0 mm | - | 4 W/m² | - |
| 1788565273 | 30° C | 81% | 1016.2 hPa | 0 mm | - | 7 W/m² | - |
| 1788564969 | 30° C | 81% | 1016.4 hPa | 0 mm | - | 10 W/m² | - |
| 1788564664 | 30° C | 80% | 1016.4 hPa | 0 mm | - | 13 W/m² | - |
| 1788564361 | 30° C | 79% | 1016.3 hPa | 0 mm | - | 16 W/m² | - |
| 1788564057 | 30.56° C | 79% | 1016.3 hPa | 0 mm | - | 21 W/m² | - |
| 1788563752 | 30.56° C | 78% | 1016 hPa | 0 mm | - | 28 W/m² | - |
| 1788563447 | 30.56° C | 79% | 1016.1 hPa | 0 mm | - | 30 W/m² | - |
| 1788563146 | 30.56° C | 79% | 1016.1 hPa | 0 mm | - | 43 W/m² | - |
| 1788562842 | 30.56° C | 78% | 1016.1 hPa | 0 mm | - | 45 W/m² | - |
| 1788562539 | 31.11° C | 78% | 1016.4 hPa | 0 mm | - | 48 W/m² | - |
| 1788562239 | 31.11° C | 77% | 1016.3 hPa | 0 mm | - | 53 W/m² | - |
| 1788561934 | 31.11° C | 75% | 1016.2 hPa | 0 mm | - | 56 W/m² | - |
| 1788561634 | 31.67° C | 76% | 1016 hPa | 0 mm | - | 75 W/m² | - |
* Rain latest hour (hover to see other rain measurements)
** Current wind speed in m/s (hover to see current wind gust speed)